Douglas, WY

8:04 PM MST on February 20, 2017 (GMT -0700)
Converse County

Weather History for KDGW - February, 2013

Change the Weather History Date:

Friday, February 8, 2013

  Actual Average Record
Temperature  
Mean Temperature 31 °F 25 °F  
Max Temperature 53 °F 39 °F 59 °F (2015)
Min Temperature 8 °F 12 °F -20 °F (2001)
Degree Days  
Heating Degree Days 34 40  
Month to date heating degree days 270 320  
Since 1 July heating degree days 4196 4651  
Cooling Degree Days 0 0  
Month to date cooling degree days 0 0  
Year to date cooling degree days 0 0  
Moisture  
Dew Point 12 °F    
Average Humidity 47    
Maximum Humidity 73    
Minimum Humidity 20    
Precipitation  
Precipitation 0.00 in 0.02 in 0.12 in (2014)
Month to date precipitation T 0.12  
Year to date precipitation 0.09 0.50  
Sea Level Pressure  
Sea Level Pressure 29.91 in    
Wind  
Wind Speed 7 mph (North)    
Max Wind Speed 17 mph    
Max Gust Speed 21 mph    
Visibility 10 miles    
Events      
T = Trace of Precipitation, MM = Missing Value Source: NWS Daily Summary

Daily Weather History Graph

Daily Weather History Graph

Search for Another Location

Airport or City:

Trip Planner

Search our weather history database for the weather conditions in past years. The results will help you decide how hot, cold, wet, or windy it might be!

Date:

Astronomy

Feb. 08, 2013 Rise Set
Actual Time 7:07 AM MST 5:24 PM MST
Civil Twilight 6:38 AM MST 5:53 PM MST
Nautical Twilight 6:04 AM MST 6:27 PM MST
Astronomical Twilight 5:31 AM MST 7:00 PM MST
Moon 5:39 AM MST (2/8) 4:00 PM MST (2/8)
Length of Visible Light 11h 15m
Length of Day
10h 16m
Waning Crescent, 3% of the Moon is Illuminated
Feb 8
Waning Crescent
Feb 10
New
Feb 17
First Quarter
Feb 25
Full
Mar 4
Last Quarter

Hourly Weather History & Observations

Time (MST) Temp. Windchill Dew Point Humidity Pressure Visibility Wind Dir Wind Speed Gust Speed Precip Events Conditions
12:53 AM 17.1 °F - 6.1 °F 62% 30.02 in 10.0 mi Calm Calm - N/A   Clear
1:53 AM 14.0 °F 8.2 °F 6.1 °F 71% 30.02 in 10.0 mi Variable 3.5 mph - N/A   Clear
2:53 AM 12.0 °F 5.9 °F 3.9 °F 70% 30.02 in 10.0 mi Variable 3.5 mph - N/A   Clear
3:53 AM 9.0 °F - 1.9 °F 73% 30.02 in 10.0 mi Calm Calm - N/A   Clear
4:53 AM 10.9 °F 4.7 °F 3.9 °F 73% 30.04 in 10.0 mi North 3.5 mph - N/A   Clear
5:53 AM 28.0 °F 24.2 °F 8.1 °F 43% 29.98 in 10.0 mi Variable 3.5 mph - N/A   Clear
6:53 AM 30.9 °F 22.2 °F 12.0 °F 46% 29.97 in 10.0 mi WSW 10.4 mph - N/A   Clear
7:53 AM 35.1 °F - 12.0 °F 39% 29.97 in 10.0 mi Calm Calm - N/A   Clear
8:53 AM 32.0 °F 28.7 °F 15.1 °F 50% 29.98 in 10.0 mi WNW 3.5 mph - N/A   Clear
9:53 AM 37.0 °F 31.0 °F 14.0 °F 39% 29.94 in 10.0 mi NNW 8.1 mph - N/A   Clear
10:53 AM 41.0 °F 34.7 °F 15.1 °F 35% 29.93 in 10.0 mi NW 10.4 mph - N/A   Clear
11:53 AM 46.0 °F 40.6 °F 15.1 °F 29% 29.88 in 10.0 mi WNW 11.5 mph - N/A   Clear
12:53 PM 48.0 °F - 15.1 °F 27% 29.84 in 10.0 mi NW 11.5 mph - N/A   Clear
1:53 PM 53.1 °F - 14.0 °F 21% 29.81 in 10.0 mi North 9.2 mph - N/A   Clear
2:53 PM 44.1 °F 37.1 °F 10.9 °F 26% 29.87 in 10.0 mi East 15.0 mph - N/A   Overcast
3:53 PM 46.0 °F 40.2 °F 10.0 °F 23% 29.85 in 10.0 mi ENE 12.7 mph - N/A   Clear
4:53 PM 37.0 °F 31.6 °F 10.0 °F 33% 29.90 in 10.0 mi NNE 6.9 mph - N/A   Clear
5:53 PM 33.1 °F 24.9 °F 10.0 °F 38% 29.84 in 10.0 mi NNE 10.4 mph - N/A   Scattered Clouds
6:53 PM 36.0 °F 31.1 °F 15.1 °F 43% 29.83 in 10.0 mi NNE 5.8 mph - N/A   Overcast
7:53 PM 35.1 °F 27.4 °F 15.1 °F 44% 29.82 in 10.0 mi NE 10.4 mph - N/A   Mostly Cloudy
8:53 PM 32.0 °F 27.5 °F 15.1 °F 50% 29.84 in 10.0 mi NNW 4.6 mph - N/A   Scattered Clouds
9:53 PM 32.0 °F 23.6 °F 15.1 °F 50% 29.83 in 10.0 mi NNW 10.4 mph - N/A   Partly Cloudy
10:53 PM 30.9 °F 23.5 °F 18.0 °F 59% 29.79 in 10.0 mi North 8.1 mph - N/A   Scattered Clouds
11:53 PM 30.0 °F 21.1 °F 19.0 °F 64% 29.81 in 10.0 mi NW 10.4 mph - N/A   Mostly Cloudy